Location: Bretagne
(43.8474°N, 0.4650°W)
Time: 00:08:58
(UTC+00:00)

Envisat - Pass Details

Date: 13 March 2026
Orbit: 761 x 762 km, 98.4° (Epoch: 13 April)

Event Time Altitude Azimuth Distance (km) Brightness Sun altitude
Rises 04:00:38 0° 360° (N) 3,235 6.5 -25.1°
Reaches altitude 10° 04:03:26 10° 345° (NNW) 2,304 5.5 -24.7°
Enters shadow 04:05:12 17° 327° (NNW) 1,866 4.9 -24.4°
